Torna al catalogo

CZ-6A DEB

AttivoSSO
NORAD 54901·DEBRIS·🇨🇳 China

Lanciato Nov 11, 2022 da Taiyuan Satellite Launch Center

Loading…

Prossimi Passaggi (prossime 24 ore)

TLE

AggiornatoSource: Space-Track

Epoca: Sep 14, 2026, 02:38 UTC

1 54901U 22151QN  26257.11028467  .00004508  00000-0  91788-3 0  9994
2 54901  98.6142 316.3285 0090155  41.5639 319.2367 14.59007493202206

Traccia CZ-6A DEB in tempo reale con AllMySat

Download on the App Store